timestamp,wind_dir_avg,wind_spd_avg,wind_spd_max_dir,wind_spd_gust,battery_voltage,lat,long
2023-02-10 00:04:00+00:00,323.0,10.37,324.0,13.4,12.33,47.59359,-54.27349
2023-02-10 00:14:00+00:00,322.0,11.31,322.0,13.05,12.33,47.59359,-54.27349
2023-02-10 00:24:00+00:00,331.0,10.33,314.0,12.5,12.33,47.59359,-54.27349
2023-02-10 00:34:00+00:00,337.0,10.21,343.0,12.67,12.33,47.59359,-54.27349
2023-02-10 00:44:00+00:00,340.0,9.92,338.0,12.18,12.33,47.59359,-54.27349
2023-02-10 00:54:00+00:00,338.0,10.73,341.0,12.61,12.33,47.59359,-54.27349
2023-02-10 01:04:00+00:00,341.0,8.68,343.0,11.98,12.33,47.59359,-54.27349
2023-02-10 01:14:00+00:00,329.0,6.75,331.0,8.47,12.25,47.59359,-54.27349
2023-02-10 01:24:00+00:00,315.0,8.83,316.0,11.08,12.25,47.59359,-54.27349
2023-02-10 01:34:00+00:00,319.0,4.51,322.0,6.77,12.25,47.59359,-54.27349
2023-02-10 01:44:00+00:00,342.0,6.81,343.0,7.76,12.25,47.59359,-54.27349
2023-02-10 01:54:00+00:00,330.0,6.37,327.0,7.22,12.25,47.59359,-54.27349
2023-02-10 02:04:00+00:00,323.0,7.07,318.0,9.1,12.25,47.59359,-54.27349
2023-02-10 02:14:00+00:00,343.0,8.93,345.0,10.71,12.25,47.59359,-54.27349
2023-02-10 02:24:00+00:00,329.0,5.75,324.0,7.97,12.25,47.59359,-54.27349
2023-02-10 02:34:00+00:00,339.0,5.8,356.0,7.96,12.25,47.59359,-54.27349
2023-02-10 02:44:00+00:00,346.0,7.34,343.0,8.89,12.25,47.59359,-54.27349
2023-02-10 02:54:00+00:00,339.0,6.85,337.0,9.55,12.25,47.59359,-54.27349
2023-02-10 03:04:00+00:00,328.0,5.67,335.0,7.14,12.25,47.59359,-54.27349
2023-02-10 03:14:00+00:00,334.0,5.91,328.0,6.73,12.25,47.59359,-54.27349
2023-02-10 03:24:00+00:00,326.0,5.12,330.0,6.12,12.25,47.59359,-54.27349
2023-02-10 03:34:00+00:00,340.0,6.0,346.0,7.16,12.25,47.59359,-54.27349
2023-02-10 03:44:00+00:00,350.0,4.45,326.0,6.3,12.25,47.59359,-54.27349
2023-02-10 03:54:00+00:00,336.0,6.28,334.0,7.29,12.25,47.59359,-54.27349
2023-02-10 04:04:00+00:00,328.0,5.7,328.0,8.14,12.25,47.59359,-54.27349
2023-02-10 04:14:00+00:00,337.0,6.51,326.0,8.25,12.17,47.59359,-54.27349
2023-02-10 04:24:00+00:00,326.0,7.09,322.0,8.39,12.17,47.59359,-54.27349
2023-02-10 04:34:00+00:00,337.0,6.19,342.0,8.86,12.17,47.59359,-54.27349
2023-02-10 04:44:00+00:00,336.0,5.76,313.0,7.4,12.17,47.59359,-54.27349
2023-02-10 04:54:00+00:00,328.0,7.19,304.0,9.98,12.17,47.59359,-54.27349
2023-02-10 05:04:00+00:00,334.0,5.93,338.0,6.52,12.17,47.59359,-54.27349
2023-02-10 05:14:01+00:00,346.0,5.66,346.0,7.09,12.17,47.59359,-54.27349
2023-02-10 05:24:01+00:00,330.0,4.99,317.0,5.88,12.17,47.59359,-54.27349
2023-02-10 05:34:01+00:00,328.0,5.3,333.0,5.93,12.17,47.59359,-54.27349
2023-02-10 05:44:01+00:00,327.0,5.58,329.0,6.63,12.17,47.59359,-54.27349
2023-02-10 05:54:01+00:00,329.0,4.96,318.0,6.08,12.17,47.59359,-54.27349
2023-02-10 06:04:01+00:00,325.0,5.05,325.0,6.43,12.17,47.59359,-54.27349
2023-02-10 06:14:00+00:00,329.0,5.2,326.0,6.48,12.17,47.59359,-54.27349
2023-02-10 06:24:00+00:00,321.0,6.42,307.0,8.85,12.17,47.59359,-54.27349
2023-02-10 06:34:00+00:00,329.0,5.87,327.0,6.95,12.17,47.59359,-54.27349
2023-02-10 06:44:00+00:00,339.0,6.12,340.0,7.02,12.17,47.59359,-54.27349
2023-02-10 06:54:00+00:00,346.0,5.92,350.0,7.5,12.17,47.59359,-54.27349
2023-02-10 07:04:00+00:00,336.0,6.56,329.0,7.44,12.17,47.59359,-54.27349
2023-02-10 07:14:00+00:00,329.0,7.11,315.0,8.85,12.17,47.59359,-54.27349
2023-02-10 07:24:00+00:00,340.0,6.58,325.0,7.83,12.17,47.59359,-54.27349
2023-02-10 07:34:00+00:00,343.0,5.36,335.0,6.61,12.17,47.59359,-54.27349
2023-02-10 07:44:00+00:00,330.0,4.68,316.0,5.73,12.17,47.59359,-54.27349
2023-02-10 07:54:00+00:00,332.0,5.99,335.0,6.67,12.17,47.59359,-54.27349
2023-02-10 08:04:00+00:00,316.0,6.34,307.0,8.13,12.17,47.59359,-54.27349
2023-02-10 08:14:01+00:00,322.0,5.57,328.0,6.3,12.17,47.59359,-54.27349
2023-02-10 08:24:01+00:00,315.0,5.63,301.0,8.53,12.17,47.59359,-54.27349
2023-02-10 08:34:01+00:00,312.0,4.46,309.0,5.72,12.17,47.59359,-54.27349
2023-02-10 08:44:01+00:00,319.0,4.97,320.0,5.72,12.17,47.59359,-54.27349
2023-02-10 08:54:01+00:00,295.0,5.2,281.0,8.62,12.17,47.59359,-54.27349
2023-02-10 09:04:01+00:00,293.0,4.06,303.0,4.97,12.17,47.59359,-54.27349
2023-02-10 09:14:01+00:00,298.0,4.42,286.0,6.51,12.09,47.59359,-54.27349
2023-02-10 09:24:01+00:00,310.0,4.47,318.0,5.39,12.09,47.59359,-54.27349
2023-02-10 09:34:01+00:00,279.0,8.03,278.0,9.69,12.09,47.59359,-54.27349
2023-02-10 09:44:01+00:00,288.0,6.1,284.0,9.23,12.09,47.59359,-54.27349
2023-02-10 09:54:01+00:00,285.0,6.96,285.0,9.25,12.09,47.59359,-54.27349
2023-02-10 10:04:01+00:00,295.0,5.54,287.0,9.47,12.09,47.59359,-54.27349
2023-02-10 10:14:01+00:00,286.0,6.64,283.0,9.47,12.09,47.59359,-54.27349
2023-02-10 10:24:01+00:00,273.0,8.26,272.0,9.95,12.09,47.59359,-54.27349
2023-02-10 10:34:01+00:00,285.0,4.24,280.0,6.24,12.09,47.59359,-54.27349
2023-02-10 10:44:01+00:00,308.0,3.02,312.0,3.8,12.09,47.59359,-54.27349
2023-02-10 10:54:01+00:00,303.0,3.93,304.0,4.45,12.09,47.59359,-54.27349
2023-02-10 11:04:01+00:00,288.0,3.58,293.0,4.37,12.09,47.59359,-54.27349
2023-02-10 11:14:00+00:00,296.0,3.74,302.0,4.85,12.17,47.59359,-54.27349
2023-02-10 11:24:00+00:00,278.0,3.61,277.0,4.46,12.17,47.59359,-54.27349
2023-02-10 11:34:00+00:00,297.0,3.99,285.0,8.88,12.17,47.59359,-54.27349
2023-02-10 11:44:00+00:00,309.0,3.09,309.0,3.81,12.17,47.59359,-54.27349
2023-02-10 11:54:00+00:00,308.0,3.22,306.0,4.09,12.17,47.59359,-54.27349
2023-02-10 12:04:00+00:00,322.0,3.22,314.0,3.99,12.17,47.59359,-54.27349
2023-02-10 12:14:00+00:00,312.0,4.34,312.0,4.81,13.76,47.59359,-54.27349
2023-02-10 12:24:00+00:00,281.0,3.66,286.0,4.53,13.76,47.59359,-54.27349
2023-02-10 12:34:00+00:00,319.0,3.73,319.0,4.35,13.76,47.59359,-54.27349
2023-02-10 12:44:00+00:00,309.0,4.14,315.0,4.9,13.76,47.59359,-54.27349
2023-02-10 12:54:00+00:00,312.0,4.25,314.0,4.9,13.76,47.59359,-54.27349
2023-02-10 13:04:00+00:00,320.0,3.14,345.0,3.91,13.76,47.59359,-54.27349
2023-02-10 13:14:00+00:00,328.0,3.46,320.0,4.09,14.48,47.59359,-54.27349
2023-02-10 13:24:00+00:00,327.0,4.02,326.0,5.12,14.48,47.59359,-54.27349
2023-02-10 13:34:00+00:00,332.0,4.19,328.0,4.97,14.48,47.59359,-54.27349
2023-02-10 13:44:00+00:00,348.0,3.33,344.0,4.41,14.48,47.59359,-54.27349
2023-02-10 13:54:00+00:00,355.0,2.62,356.0,3.29,14.48,47.59359,-54.27349
2023-02-10 14:04:00+00:00,354.0,2.64,331.0,3.62,14.48,47.59359,-54.27349
2023-02-10 14:14:00+00:00,5.0,2.44,22.0,3.29,14.48,47.59359,-54.27349
2023-02-10 14:24:00+00:00,293.0,1.89,302.0,2.73,14.48,47.59359,-54.27349
2023-02-10 14:34:00+00:00,351.0,0.69,29.0,1.1,14.48,47.59359,-54.27349
2023-02-10 14:44:00+00:00,322.0,1.41,311.0,2.16,14.48,47.59359,-54.27349
2023-02-10 14:54:00+00:00,301.0,1.9,304.0,2.84,14.48,47.59359,-54.27349
2023-02-10 15:04:00+00:00,55.0,0.58,279.0,1.8,14.48,47.59359,-54.27349
2023-02-10 15:14:00+00:00,192.0,1.14,241.0,2.68,13.68,47.59359,-54.27349
2023-02-10 15:24:00+00:00,239.0,0.19,190.0,1.09,13.68,47.59359,-54.27349
2023-02-10 15:34:00+00:00,235.0,1.35,236.0,2.21,13.68,47.59359,-54.27349
2023-02-10 15:44:00+00:00,221.0,0.57,233.0,1.27,13.68,47.59359,-54.27349
2023-02-10 15:54:00+00:00,155.0,1.67,157.0,2.26,13.68,47.59359,-54.27349
2023-02-10 16:04:00+00:00,198.0,1.6,236.0,2.92,13.68,47.59359,-54.27349
2023-02-10 16:14:00+00:00,187.0,2.83,185.0,3.72,13.84,47.59359,-54.27349
2023-02-10 16:24:00+00:00,181.0,2.95,183.0,3.62,13.84,47.59359,-54.27349
2023-02-10 16:34:00+00:00,200.0,1.31,195.0,1.73,13.84,47.59359,-54.27349
2023-02-10 16:44:00+00:00,158.0,1.81,149.0,2.23,13.84,47.59359,-54.27349
2023-02-10 16:54:00+00:00,150.0,0.95,135.0,1.53,13.84,47.59359,-54.27349
2023-02-10 17:04:00+00:00,178.0,1.01,181.0,1.96,13.84,47.59359,-54.27349
2023-02-10 17:14:00+00:00,194.0,1.8,198.0,2.22,13.53,47.59359,-54.27349
2023-02-10 17:24:00+00:00,196.0,2.16,190.0,2.77,13.53,47.59359,-54.27349
2023-02-10 17:34:00+00:00,206.0,2.07,224.0,2.63,13.53,47.59359,-54.27349
2023-02-10 17:44:00+00:00,195.0,1.57,188.0,2.05,13.53,47.59359,-54.27349
2023-02-10 17:54:00+00:00,199.0,2.46,188.0,3.2,13.53,47.59359,-54.27349
2023-02-10 18:04:00+00:00,195.0,1.39,199.0,1.76,13.53,47.59359,-54.27349
2023-02-10 18:14:00+00:00,169.0,1.77,170.0,2.13,13.53,47.59359,-54.27349
2023-02-10 18:24:00+00:00,199.0,3.32,202.0,3.98,13.53,47.59359,-54.27349
2023-02-10 18:34:00+00:00,178.0,3.5,178.0,4.34,13.53,47.59359,-54.27349
2023-02-10 18:44:00+00:00,181.0,2.75,182.0,3.34,13.53,47.59359,-54.27349
2023-02-10 18:54:00+00:00,182.0,3.15,180.0,4.1,13.53,47.59359,-54.27349
2023-02-10 19:04:00+00:00,172.0,3.34,172.0,4.87,13.53,47.59359,-54.27349
2023-02-10 19:14:00+00:00,157.0,3.71,159.0,4.32,12.89,47.59359,-54.27349
2023-02-10 19:24:00+00:00,181.0,4.48,179.0,5.1,12.89,47.59359,-54.27349
2023-02-10 19:34:00+00:00,166.0,3.28,171.0,4.01,12.89,47.59359,-54.27349
2023-02-10 19:44:00+00:00,150.0,3.12,142.0,3.75,12.89,47.59359,-54.27349
2023-02-10 19:54:00+00:00,150.0,3.65,146.0,4.42,12.89,47.59359,-54.27349
2023-02-10 20:04:00+00:00,156.0,3.57,146.0,4.22,12.89,47.59359,-54.27349
2023-02-10 20:14:00+00:00,151.0,3.45,139.0,4.3,12.57,47.59359,-54.27349
2023-02-10 20:24:00+00:00,144.0,2.59,141.0,3.43,12.57,47.59359,-54.27349
2023-02-10 20:34:00+00:00,124.0,2.84,120.0,3.83,12.57,47.59359,-54.27349
2023-02-10 20:44:00+00:00,116.0,1.95,120.0,3.8,12.57,47.59359,-54.27349
2023-02-10 20:54:00+00:00,117.0,3.63,121.0,4.74,12.57,47.59359,-54.27349
2023-02-10 21:04:00+00:00,136.0,4.76,138.0,5.99,12.57,47.59359,-54.27349
2023-02-10 21:14:00+00:00,133.0,5.13,125.0,6.04,12.41,47.59359,-54.27349
2023-02-10 21:24:00+00:00,135.0,5.29,134.0,6.25,12.41,47.59359,-54.27349
2023-02-10 21:34:00+00:00,134.0,6.06,139.0,6.95,12.41,47.59359,-54.27349
2023-02-10 21:44:00+00:00,133.0,7.18,135.0,8.65,12.41,47.59359,-54.27349
2023-02-10 21:54:00+00:00,138.0,7.23,142.0,8.04,12.41,47.59359,-54.27349
2023-02-10 22:04:00+00:00,127.0,6.19,129.0,7.05,12.41,47.59359,-54.27349
2023-02-10 22:14:00+00:00,137.0,6.01,132.0,7.13,12.33,47.59359,-54.27349
2023-02-10 22:24:00+00:00,142.0,7.83,145.0,8.98,12.33,47.59359,-54.27349
2023-02-10 22:34:00+00:00,137.0,7.52,141.0,8.48,12.33,47.59359,-54.27349
2023-02-10 22:44:00+00:00,134.0,6.92,131.0,8.97,12.33,47.59359,-54.27349
2023-02-10 22:54:00+00:00,128.0,7.93,130.0,9.26,12.33,47.59359,-54.27349
2023-02-10 23:04:00+00:00,136.0,8.26,134.0,9.47,12.33,47.59359,-54.27349
2023-02-10 23:14:00+00:00,136.0,8.5,133.0,9.83,12.33,47.59359,-54.27349
2023-02-10 23:24:00+00:00,141.0,7.39,145.0,9.87,12.33,47.59359,-54.27349
2023-02-10 23:34:00+00:00,133.0,6.93,141.0,8.24,12.33,47.59359,-54.27349
2023-02-10 23:44:00+00:00,128.0,6.7,125.0,8.36,12.33,47.59359,-54.27349
2023-02-10 23:54:00+00:00,131.0,7.88,131.0,9.18,12.33,47.59359,-54.27349
